Ambrogiana, Italy

3:27 AM CEST on July 26, 2017 (GMT +0200)
Ambrogiana

Weather History for 16170 - May, 2013

Change the Weather History Date:

Sunday, May 5, 2013

  Actual Average Record
Temperature  
Mean Temperature 60 °F -  
Max Temperature 68 °F 75 °F - ()
Min Temperature 53 °F 53 °F - ()
Degree Days  
Heating Degree Days 4    
Growing Degree Days 10 (Base 50)    
Moisture  
Dew Point 55 °F    
Average Humidity 82    
Maximum Humidity 94    
Minimum Humidity 68    
Precipitation  
Precipitation 0.00 in 0.09 in - ()
Sea Level Pressure  
Sea Level Pressure 30.01 in    
Wind  
Wind Speed 3 mph ()    
Max Wind Speed 9 mph    
Max Gust Speed 14 mph    
Visibility 6.1 miles    
Events Rain , Thunderstorm    
T = Trace of Precipitation, MM = Missing Value Source: Averaged Metar Reports

Daily Weather History Graph

Daily Weather History Graph

Search for Another Location

Airport or City:

Trip Planner

Search our weather history database for the weather conditions in past years. The results will help you decide how hot, cold, wet, or windy it might be!

Date:

Astronomy

May. 05, 2013 Rise Set
Actual Time 6:01 AM CEST 8:22 PM CEST
Civil Twilight 5:29 AM CEST 8:54 PM CEST
Nautical Twilight 4:50 AM CEST 9:34 PM CEST
Astronomical Twilight 4:05 AM CEST 10:19 PM CEST
Moon 3:32 AM CEST (5/5) 3:57 PM CEST (5/5)
Length of Visible Light 15h 25m
Length of Day
14h 20m
Waning Crescent, 20% of the Moon is Illuminated
May 5
Waning Crescent
May 10
New
May 18
First Quarter
May 25
Full
May 31
Last Quarter

Hourly Weather History & Observations

Time (CEST) Temp. Dew Point Humidity Pressure Visibility Wind Dir Wind Speed Gust Speed Precip Events Conditions
12:20 AM 60.8 °F 51.8 °F 72% 30.01 in - NE 3.5 mph - N/A   Clear
12:50 AM 59.0 °F 51.8 °F 77% 30.01 in - ENE 4.6 mph - N/A   Clear
1:20 AM 60.8 °F 51.8 °F 72% 30.01 in - Variable 1.2 mph - N/A   Clear
1:50 AM 57.2 °F 51.8 °F 82% 29.98 in - Variable 2.3 mph - N/A   Clear
2:20 AM 55.4 °F 51.8 °F 88% 29.98 in - Variable 1.2 mph - N/A   Clear
2:50 AM 57.2 °F 51.8 °F 82% 29.98 in - Variable 1.2 mph - N/A   Clear
3:20 AM 57.2 °F 51.8 °F 82% 29.98 in - West 3.5 mph - N/A   Clear
3:50 AM 55.4 °F 50.0 °F 82% 29.98 in - Variable 2.3 mph - N/A   Clear
4:20 AM 55.4 °F 50.0 °F 82% 29.98 in - SE 3.5 mph - N/A   Clear
4:50 AM 53.6 °F 50.0 °F 88% 29.98 in - ENE 4.6 mph - N/A   Clear
5:20 AM 55.4 °F 50.0 °F 82% 29.98 in 6.2 mi East 2.3 mph - N/A   Partly Cloudy
5:50 AM 53.6 °F 50.0 °F 88% 29.98 in 6.2 mi ENE 4.6 mph - N/A   Partly Cloudy
6:20 AM 53.6 °F 50.0 °F 88% 29.98 in 6.2 mi ENE 3.5 mph - N/A   Partly Cloudy
6:50 AM 53.6 °F 51.8 °F 94% 29.98 in 6.2 mi East 4.6 mph - N/A   Partly Cloudy
7:20 AM 57.2 °F 51.8 °F 82% 30.01 in 6.2 mi East 3.5 mph - N/A   Partly Cloudy
7:50 AM 60.8 °F 53.6 °F 77% 30.01 in 6.2 mi East 4.6 mph - N/A   Partly Cloudy
8:20 AM 60.8 °F 53.6 °F 77% 30.01 in 6.2 mi ENE 3.5 mph - N/A   Partly Cloudy
8:50 AM 60.8 °F 53.6 °F 77% 30.04 in 6.2 mi ESE 9.2 mph - N/A   Scattered Clouds
9:20 AM 59.0 °F 55.4 °F 88% 30.04 in 6.2 mi East 6.9 mph - N/A Rain , Thunderstorm Light Rain
9:50 AM 60.8 °F 55.4 °F 82% 30.04 in 6.2 mi Variable 2.3 mph - N/A Thunderstorm Mostly Cloudy
10:20 AM 62.6 °F 55.4 °F 77% 30.06 in 6.2 mi Variable 1.2 mph - N/A   Scattered Clouds
10:50 AM 60.8 °F 55.4 °F 82% 30.06 in 6.2 mi West 8.1 mph - N/A   Scattered Clouds
11:20 AM 62.6 °F 55.4 °F 77% 30.06 in 6.2 mi West 4.6 mph - N/A   Mostly Cloudy
11:50 AM 64.4 °F 57.2 °F 77% 30.04 in 6.2 mi WSW 4.6 mph - N/A   Scattered Clouds
12:20 PM 66.2 °F 57.2 °F 73% 30.04 in 6.2 mi West 6.9 mph - N/A   Scattered Clouds
12:50 PM 68.0 °F 57.2 °F 68% 30.04 in 6.2 mi SW 5.8 mph - N/A   Scattered Clouds
1:20 PM 66.2 °F 55.4 °F 68% 30.04 in 6.2 mi South 5.8 mph - N/A   Mostly Cloudy
1:50 PM 60.8 °F 57.2 °F 88% 30.04 in 3.1 mi Variable 6.9 mph - N/A Rain Heavy Rain Showers
2:20 PM 60.8 °F 59.0 °F 94% 30.04 in 6.2 mi Variable 3.5 mph - N/A Rain Light Rain
2:50 PM 62.6 °F 59.0 °F 88% 30.04 in 6.2 mi NE 4.6 mph - N/A Rain Light Rain
3:20 PM 62.6 °F 59.0 °F 88% 30.04 in 6.2 mi East 5.8 mph - N/A Rain Rain
3:50 PM 62.6 °F 59.0 °F 88% 30.01 in 6.2 mi Variable 2.3 mph 13.8 mph N/A Rain Light Rain
4:20 PM 62.6 °F 59.0 °F 88% 30.01 in 6.2 mi NW 4.6 mph - N/A   Overcast
4:50 PM 64.4 °F 59.0 °F 83% 29.98 in 6.2 mi Calm Calm - N/A   Overcast
5:20 PM 64.4 °F 57.2 °F 77% 29.98 in 6.2 mi South 3.5 mph - N/A   Overcast
5:50 PM 64.4 °F 57.2 °F 77% 29.98 in 6.2 mi Variable 2.3 mph - N/A   Overcast
6:20 PM 64.4 °F 59.0 °F 83% 29.98 in 6.2 mi Variable 2.3 mph - N/A   Mostly Cloudy
6:50 PM 64.4 °F 57.2 °F 77% 29.98 in 6.2 mi West 3.5 mph - N/A   Mostly Cloudy
7:20 PM 64.4 °F 57.2 °F 77% 29.98 in 6.2 mi West 2.3 mph - N/A   Mostly Cloudy
7:50 PM 64.4 °F 57.2 °F 77% 30.01 in 6.2 mi SE 3.5 mph - N/A   Mostly Cloudy
8:20 PM 62.6 °F 57.2 °F 82% 30.01 in 6.2 mi Variable 2.3 mph - N/A   Mostly Cloudy
8:50 PM 62.6 °F 57.2 °F 82% 30.01 in 6.2 mi Variable 2.3 mph - N/A   Mostly Cloudy
9:20 PM 62.6 °F 57.2 °F 82% 30.01 in 6.2 mi South 1.2 mph - N/A   Mostly Cloudy
9:50 PM 60.8 °F 57.2 °F 88% 30.01 in 6.2 mi SSE 3.5 mph - N/A   Partly Cloudy
10:20 PM 59.0 °F 55.4 °F 88% 30.01 in 6.2 mi Variable 1.2 mph - N/A   Partly Cloudy
10:50 PM 59.0 °F 55.4 °F 88% 30.01 in 6.2 mi Calm Calm - N/A   Partly Cloudy
11:20 PM 57.2 °F 55.4 °F 94% 30.01 in 6.2 mi Variable 2.3 mph - N/A   Partly Cloudy
11:50 PM 55.4 °F 53.6 °F 94% 30.01 in - NE 3.5 mph - N/A   Clear